User: anonymous   Login
Location: Unspecified
(0.0000°N, 0.0000°E)
Time: 15:33:53
(UTC+00:00)
Language:

Tsikada - Orbit

View from above orbital plane
View from above orbital plane
View from above satellite
View from above satellite

Ground track
Ground track

The orbit data is extracted from the following two-line orbital elements,

1 23463U 95002A   18116.17978228  .00000023  00000-0  77268-5 0  9995
2 23463  82.9294  54.7188 0040085 117.7911   0.3236 13.72484262164757
Epoch (UTC): 26 April 2018 04:18:53
Eccentricity: 0.0040085
inclination: 82.9294°
perigee height: 961 km
apogee height: 1020 km
right ascension of ascending node: 54.7188°
argument of perigee: 117.7911°
revolutions per day: 13.72484262
mean anomaly at epoch: 0.3236°
orbit number at epoch: 16475

The dashed part of the orbit path shows where the satellite is in the earth's shadow,  

DLR